Regional Weather Roundup
Issued by NWS

Home | Current Version | Previous Version | Text Only | Print | Product List | Glossary Off
Versions: 1 2 3 4 5 6 7 8 9 10 11 12 13 14 15 16 17 18 19 20 21 22 23 24 25 26 27 28 29 30 31 32 33 34 35 36 37 38 39 40 41 42 43 44 45 46 47 48 49 50

272
ASUS45 KBOU 250207
RWRCO

WEATHER ROUNDUP FOR COLORADO
NATIONAL WEATHER SERVICE DENVER/BOULDER CO
800 PM MDT FRI MAR 24 2017

NOTE: "FAIR" INDICATES FEW OR NO CLOUDS BELOW 12000 FEET WITH NO
SIGNIFICANT WEATHER AND/OR OBSTRUCTIONS TO VISIBILITY.

COZ001>005-013-030-031-250300-
...NORTHWEST COLORADO...

CITY           SKY/WX    TMP DP  RH WIND       PRES   REMARKS
CRAIG          FAIR      42  24  49 S5        30.13R
HAYDEN         FAIR      46  19  34 NW3       30.14R
MEEKER         FAIR      43  24  47 E3        30.14R
MOUNT WERNER   NOT AVBL
STEAMBOAT SPGS FAIR      45  24  43 CALM      30.15R
WALDEN         NOT AVBL
$$

COZ006>008-011-250300-
...WEST CENTRAL VALLEYS...

CITY           SKY/WX    TMP DP  RH WIND       PRES   REMARKS
GRAND JUNCTION FAIR      52  26  36 E5        30.10S
MONTROSE       FAIR      51  28  41 SE5       30.17R
EAGLE          CLEAR     50  27  40 SW10      30.16R
RIFLE          FAIR      51  26  37 S7        30.12R
DELTA          FAIR      56  24  30 S5        30.13S
NUCLA          FAIR      52  27  37 CALM      30.18S
$$

COZ017>023-064>068-250300-
...SOUTHWEST COLORADO...

CITY           SKY/WX    TMP DP  RH WIND       PRES   REMARKS
DURANGO        FAIR      48  24  39 SW10      30.11R
CORTEZ         FAIR      50  26  39 CALM      30.15R
PAGOSA SPRINGS FAIR      44  36  71 CALM      30.17R
TELLURIDE      NOT AVBL
WOLF CREEK PAS FAIR      28  18  64 W7        30.35R WCI  21
$$

COZ009-010-012-014-032>034-037-058>063-250300-
...CENTRAL COLORADO...

CITY           SKY/WX    TMP DP  RH WIND       PRES   REMARKS
ASPEN          MOCLDY    42  29  59 S7        30.18R
BUENA VISTA    FAIR      41  21  44 S12       30.17R
COPPER MTN     MOCLDY    28  19  69 W9        30.27S WCI  20
BERTHOUD PASS  FAIR      18   7  62 NW26      30.24F WCI  -1
COTTONWOOD PAS FAIR      37  18  44 W7        30.22R
GUNNISON       FAIR      42  27  55 W8        30.20R
KREMMLING      FAIR      46  21  36 NW5       30.17R
LEADVILLE      FAIR      30  17  58 CALM      30.22R
MONARCH PASS   FAIR      27  19  74 W15       30.38S WCI  15
SALIDA         FAIR      44  25  47 SE9       30.24R
SUNLIGHT       FAIR      27  23  86 SW7       30.31R WCI  19
WILKERSON PASS FAIR      27  21  80 NW7       30.26S WCI  19
$$

COZ069>075-250300-
...SAN LUIS VALLEY/SANGRE DE CRISTO MOUNTAINS...

CITY           SKY/WX    TMP DP  RH WIND       PRES   REMARKS
ALAMOSA        FAIR      36  29  75 SE8       30.16R
LA VETA PASS   NOT AVBL
SAGUACHE       FAIR      43  23  45 N12       30.17R
$$

COZ035-036-038>040-250300-
...NORTHERN COLORADO FRONT RANGE...

CITY           SKY/WX    TMP DP  RH WIND       PRES   REMARKS
DENVER INTL AP FAIR      41  31  67 SE7       30.14S
DMNS CITY PARK   N/A     46  33  61 CALM      30.14S
AURORA         PTCLDY    43  31  62 S6        30.15S
FRONT RANGE AP NOT AVBL
ERIE MUNI ARPT FAIR      46  30  54 SE5       30.13S
BOULDER MUN AP FAIR      46  30  53 S3        30.13S
CENTENNIAL     FAIR      41  34  76 SW9       30.15S
BROOMFIELD     PTCLDY    46  28  49 CALM      30.14
FORT COLLINS   FAIR      47  24  40 SE7       30.13R
LONGMONT       FAIR      49  30  48 S3        30.15R
$$

COZ041-046-047-076>085-087-088-250300-
...PIKES PEAK/PALMER DIVIDE AND SOUTHERN FOOTHILLS...

CITY           SKY/WX    TMP DP  RH WIND       PRES   REMARKS
COLO. SPRINGS  FAIR      40  31  70 N13       30.17S
A. F. ACADEMY  MOCLDY    36  31  82 N5        30.16S
SCHRIEVER AFB  FAIR      39  31  75 NW8       30.18R
ELLICOTT         N/A    N/A N/A N/A NW5       30.16R
FALCON         FAIR      34  32  90 NW10      30.18S WCI  26
FORT CARSON    NOT AVBL
LIMON          FAIR      34  33  96 NW8       30.13R WCI  27
MONUMENT HILL  FAIR      32  30  93 W5        30.19R WCI  27
TRINIDAD       FAIR      38  31  76 W12       30.18R
$$

COZ042>045-048>051-090-091-250300-
...NORTHEAST COLORADO...

CITY           SKY/WX    TMP DP  RH WIND       PRES   REMARKS
GREELEY ARPT   FAIR      46  29  51 SE6       30.14R
AKRON          FAIR      40  36  86 SE3       30.12S
BURLINGTON     MOCLDY    37  36  96 N17       30.10R
WRAY           FAIR      37  36  93 N6        30.11S
STERLING       FAIR      45  34  65 CALM      30.11S
HOLYOKE        FAIR      41  36  81 N3        30.11S
FORT MORGAN    FAIR      39  29  67 NE8       30.12F
$$

COZ086-089-092>099-250300-
...SOUTHEAST COLORADO...

CITY           SKY/WX    TMP DP  RH WIND       PRES   REMARKS
PUEBLO         MOCLDY    45  33  63 W5        30.15R
LA JUNTA       FAIR      41  36  82 N6        30.14R
LAMAR          FAIR      41  33  73 N17       30.09R
SPRINGFIELD      N/A     38  34  85 N30G43    30.06R
$$




USA.gov is the U.S. government's official web portal to all federal, state and local government web resources and services.